Pensacola Regional Airport Pensacola US
ICAO: KPNS
IATA: PNS
Category: Medium
Scheduled Services: Yes

Elevation: 121 ft
TransAlt. 18000 ft.

Airport Communications:
APP/DEP:118.6
ATIS:121.25
CLNC DEL:123.725
CTAF:119.9
GND:121.9
GAINESVILLE RDO:122.2
TWR:119.9
UNICOM:122.95

KPNS Zoom In..

If you have problems with the map follow the link
https://www.worldairports.se/pages/airport.php?
ICAO=KPNS

Runways:

(A) RW 08 length 7000 ft width 150 ft
LOC 110.95 / hdg 80

(B) RW 17 length 7004 ft width 150 ft
ILS 111.10 / hdg 169

(C) RW 26 length 7000 ft width 150 ft
LOC 110.95 / hdg 260

(D) RW 35 length 7004 ft width 150 ft
LOC 110.95 / hdg 349

Location; KPNS
Day. 19 / Time. 12.53 Zulu
* Altimeter: 30.16
* Temperature: 11° c. 51.8°f.
* Wind from: 000° Speed 00 kn.
Dewpoint: 08° c.
Visibility: 10 Statute Miles.
Clouds: Clear (automated report).

KPNS 191253Z 00000KT 10SM CLR 11/08 A3016 RMK AO2 SLP216 T01060078


Wind - Calm.

 
 
jpsmedia.com for Web Design worldairports.se 2018   terms of use